This demonstration page uses our WeatherBlox Daily Observations layout. Learn more.

Left ArrowRight Arrow

39.29038, -76.61219

Hourly Observations for October 23, 2020

Temp ( °F °C ) Dew Point ( °F °C ) Humidity (%) Winds ( mph kmh ) Pressure ( in mb ) Visibility ( mi km ) Precip ( " mm )
12:54 am 00:54 Mostly Clear with Patchy Fog 62 16.7 60 15.6 93 93 E 3 6 30.19 1022 7 11 0.00 0.00
1:37 am 01:37 Partly Cloudy with Mist and Fog 60 15.6 58 14.4 93 93 Calm 30.18 1022 1 2 0.00 0.00
1:50 am 01:50 Mostly Cloudy with Mist and Fog 61 16 57 14 88 88 Calm 30.18 1022 1 1 0.00 0.00
1:54 am 01:54 Mostly Cloudy with Mist and Fog 60 15.6 59 15 96 96 Calm 30.18 1022 1 1 0.00 0.00
2:03 am 02:03 Partly Cloudy with Mist and Fog 60 15.6 58 14.4 93 93 Calm 30.18 1022 2 3 0.00 0.00
2:24 am 02:24 Partly Cloudy with Patchy Fog 59 15 58 14.4 96 96 Calm 30.17 1022 4 6 0.00 0.00
2:44 am 02:44 Partly Cloudy with Patchy Fog 60 15.6 58 14.4 93 93 Calm 30.17 1022 3 4 0.00 0.00
2:54 am 02:54 Partly Cloudy with Patchy Fog 59 15 58 14.4 96 96 Calm 30.16 1022 2 3 0.00 0.00
3:10 am 03:10 Mostly Cloudy with Patchy Fog 59 15 57 13.9 93 93 Calm 30.16 1021 2 3 0.00 0.00
3:18 am 03:18 Mostly Cloudy with Fog 59 15 57 13.9 93 93 Calm 30.16 1021 1 1 0.00 0.00
3:37 am 03:37 Mostly Cloudy with Fog 59 15 57 13.9 93 93 Calm 30.16 1021 1 2 0.00 0.00
3:54 am 03:54 Mostly Cloudy with Fog 60 15.6 58 14.4 93 93 ESE 3 6 30.15 1021 1 2 0.00 0.00
4:54 am 04:54 Mostly Cloudy with Fog 59 15 58 14.4 96 96 Calm 30.16 1021 0 0 0.00 0.00
5:29 am 05:29 Mostly Cloudy with Fog 60 15.6 58 14.4 93 93 Calm 30.17 1022 1 1 0.00 0.00
5:43 am 05:43 Mostly Cloudy with Fog 60 15.6 59 15 96 96 Calm 30.17 1022 1 2 0.00 0.00
5:54 am 05:54 Mostly Cloudy with Fog 60 15.6 59 15 96 96 ESE 3 6 30.17 1022 1 2 0.00 0.00
6:24 am 06:24 Mostly Cloudy with Fog 61 16.1 60 15.6 97 97 SE 3 6 30.18 1022 1 2 0.00 0.00
6:54 am 06:54 Mostly Cloudy with Fog 61 16.1 60 15.6 97 97 Calm 30.18 1022 1 2 0.00 0.00
7:30 am 07:30 Mostly Cloudy with Fog 61 16.1 60 15.6 97 97 Calm 30.19 1022 1 2 0.00 0.00
7:46 am 07:46 Mostly Cloudy with Fog 62 16.7 61 16.1 96 96 Calm 30.19 1022 1 2 0.00 0.00
7:54 am 07:54 Mostly Cloudy with Fog 62 16.7 61 16.1 96 96 Calm 30.19 1023 1 2 0.00 0.00
8:51 am 08:51 Mostly Cloudy with Fog 63 17 63 17 100 100 E 3 6 30.21 1023 1 2 0.00 0.00
8:54 am 08:54 Mostly Cloudy with Fog 63 17.2 62 16.7 97 97 ESE 3 6 30.21 1023 1 2 0.00 0.00
9:01 am 09:01 Mostly Cloudy with Fog 64 17.8 62 16.7 93 93 Calm 30.21 1023 1 2 0.00 0.00
9:19 am 09:19 Mostly Cloudy with Fog 64 17.8 63 17.2 96 96 Calm 30.21 1023 1 2 0.00 0.00
9:54 am 09:54 Cloudy with Fog 65 18.3 63 17.2 93 93 ESE 5 7 30.21 1023 1 1 0.00 0.00
10:12 am 10:12 Cloudy with Mist and Fog 65 18.3 63 17.2 93 93 ESE 5 7 30.21 1023 3 5 0.00 0.00
10:46 am 10:46 Cloudy 65 18.3 63 17.2 93 93 SSE 3 6 30.20 1023 10 16 0.00 0.00
10:54 am 10:54 Cloudy 65 18.3 63 17.2 93 93 Calm 30.20 1023 10 16 0.00 0.00
11:54 am 11:54 Mostly Cloudy 71 21.7 63 17.2 76 76 ESE 7 11 30.18 1022 10 16 0.00 0.00
12:38 pm 12:38 Mostly Cloudy 72 22.2 63 17.2 73 73 E 9 15 30.15 1021 10 16 0.00 0.00
12:54 pm 12:54 Mostly Cloudy 73 22.8 63 17.2 71 71 ESE 9 15 30.15 1021 10 16 0.00 0.00
1:54 pm 13:54 Partly Cloudy 73 22.8 63 17.2 71 71 E 10 17 30.13 1020 10 16 0.00 0.00
2:54 pm 14:54 Partly Cloudy 75 23.9 61 16.1 62 62 ESE 12 19 30.10 1019 10 16 0.00 0.00
3:54 pm 15:54 Partly Cloudy 73 22.8 60 15.6 64 64 SE 9 15 30.09 1019 10 16 0.00 0.00
4:54 pm 16:54 Partly Cloudy 72 22.2 59 15 64 64 SSE 6 9 30.07 1018 10 16 0.00 0.00
5:54 pm 17:54 Partly Cloudy 70 21.1 60 15.6 71 71 SE 7 11 30.06 1018 10 16 0.00 0.00
6:54 pm 18:54 Mostly Cloudy 68 20 61 16.1 78 78 SSE 5 7 30.05 1018 10 16 0.00 0.00
7:54 pm 19:54 Partly Cloudy 67 19.4 57 13.9 71 71 S 3 6 30.05 1018 10 16 0.00 0.00
8:54 pm 20:54 Partly Cloudy 66 18.9 56 13.3 70 70 S 3 6 30.04 1017 10 16 0.00 0.00
9:54 pm 21:54 Mostly Clear 64 17.8 57 13.9 78 78 Calm 30.03 1017 8 13 0.00 0.00
10:54 pm 22:54 Partly Cloudy 64 17.8 59 15 84 84 Calm 30.04 1017 8 13 0.00 0.00
11:54 pm 23:54 Mostly Clear 62 16.7 59 15 90 90 Calm 30.02 1017 8 13 0.00 0.00

Powered by AerisWeather